Orbital Elements at Epoch 2459000.5 (2020-May-31.0) TDB
Reference: JPL 20 (heliocentric ecliptic J2000)
Element | Value | Uncertainty (1-sigma) | Units |
e | .1812381059844583 | 4.859e-08 | |
a | 3.092018084369601 | 1.8841e-08 | au |
q | 2.531626583088761 | 1.4764e-07 | au |
i | 7.804374824275971 | 5.3778e-06 | deg |
node | 332.9860957975955 | 3.5817e-05 | deg |
peri | 180.0412736631256 | 3.8777e-05 | deg |
M | 90.91253332325712 | 1.3558e-05 | deg |
tp | 2458498.986389398662 (2019-Jan-15.48638940) | 7.3987e-05 | TDB |
period | 1985.918698080047 5.44 | 1.8151e-05 4.969e-08 | d yr |
n | .1812763031779911 | 1.6569e-09 | deg/d |
Q | 3.65240958565044 | 2.2256e-08 | au |
|
| | Orbit Determination Parameters
Additional Information
|